[[{"header":{"parameterUnit":"m.s-1","parameterCategory":1,"la1":30.2991,"la2":30.254,"lo1":-89.0895,"lo2":-89.0444,"dy":0.0017,"dx":0.0017,"nx":28,"ny":28,"refTime":"2024-04-06T09:00:00:Z","depth":0,"parameterNumber":2,"parameterNumberName":"U-component_of_WINDS"},"data":[0,0,0,0,0,0,0,0,0,0,0,0,0,0,0,0,0,0,0,0,0,0,0,0,0,0,0,0,0,0,0,0,0,0,0,0,0,0,0,0,0,0,0,0,0,0,0,0,0,0,0,0,0,0,0,0,0,0,-2.8203,-2.8205,0,-2.8322,-2.8323,-2.8325,-2.8338,-2.8336,-2.8335,-2.8334,-2.8453,-2.8457,-2.8461,0,0,0,0,0,0,0,0,0,0,0,0,0,-2.7986,-2.799,-2.8203,-2.8205,-2.8206,-2.8322,-2.8323,-2.8325,-2.8338,-2.8336,-2.8335,-2.8333,-2.8452,-2.8457,-2.8462,0,0,0,0,0,0,0,0,0,0,0,0,0,-2.809,-2.7991,-2.8203,-2.8227,-2.823,-2.8321,-2.8323,-2.8325,-2.8338,-2.8336,-2.8334,-2.8333,-2.845,-2.8456,-2.8463,-2.8538,0,0,-2.8482,-2.8485,0,0,0,0,0,0,0,0,-2.8084,-2.8098,-2.8222,-2.8225,-2.8229,-2.8313,-2.829,-2.8397,-2.8338,-2.8297,-2.8334,-2.8332,-2.8408,-2.8418,-2.8444,-2.8543,-2.8549,-2.8483,-2.8487,-2.8489,-2.8491,0,0,0,0,0,0,0,-2.8077,-2.8093,-2.825,-2.8223,-2.8228,-2.8231,-2.8243,-2.8311,-2.8361,-2.83,-2.8302,-2.8316,-2.8409,-2.8437,-2.8447,-2.855,-2.8483,-2.8488,-2.8492,-2.8495,-2.8718,-2.872,0,0,0,0,0,0,-2.8066,-2.8087,-2.8246,-2.8254,-2.8151,-2.8236,-2.825,-2.8288,-2.836,-2.8369,-2.8317,-2.8316,-2.8427,-2.8439,-2.8451,-2.8543,-2.8489,-2.8495,-2.8499,-2.8715,-2.8718,-2.872,0,0,0,0,0,0,-2.8061,-2.808,-2.8241,-2.8171,-2.8191,-2.8242,-2.8284,-2.8291,-2.8319,-2.8373,-2.8382,-2.8336,-2.8426,-2.8442,-2.8516,-2.8547,-2.8498,-2.8504,-2.8713,-2.8716,-2.8719,-2.8728,0,0,0,0,0,0,-2.8055,-2.8078,-2.8107,-2.8171,-2.8195,-2.8305,-2.8286,-2.8295,-2.833,-2.833,-2.8393,-2.8402,-2.8426,-2.8507,-2.8523,-2.8555,-2.8509,-2.871,-2.8714,-2.8718,-2.8725,-2.8731,-2.8736,0,0,0,0,0,-2.8047,-2.8105,-2.8109,-2.8128,-2.8233,-2.8307,-2.8321,-2.8348,-2.8333,-2.8363,-2.8397,-2.84,-2.8542,-2.8514,-2.8532,-2.8567,-2.8709,-2.8713,-2.8718,-2.8723,-2.873,-2.8736,0,0,0,0,0,0,-2.8042,-2.8113,-2.8119,-2.8199,-2.8247,-2.8309,-2.8347,-2.8355,-2.8407,-2.8405,-2.8436,-2.845,-2.8523,-2.8553,-2.8521,-2.8644,-2.8624,-2.8632,-2.8621,-2.8628,-2.8634,-2.8624,-2.8514,0,0,0,0,0,-2.8051,-2.8106,-2.8165,-2.823,-2.8254,-2.8297,-2.833,-2.8347,-2.8397,-2.8418,-2.8458,-2.8506,-2.8561,-2.8597,-2.8651,-2.8731,-2.8744,-2.8764,-2.8769,-2.8773,-2.878,-2.8823,-2.8832,-2.8736,-2.8735,-2.8735,0,0,-2.8068,-2.8114,-2.8147,-2.823,-2.8269,-2.8325,-2.8314,-2.8373,-2.8414,-2.8426,-2.8499,-2.853,-2.8586,-2.8663,-2.8699,-2.869,-2.881,-2.8779,-2.8782,-2.8786,-2.8829,-2.8838,-2.8846,-2.8739,-2.8738,-2.8738,0,0,-2.8128,-2.8169,-2.8228,-2.8268,-2.8328,-2.8356,-2.837,-2.8431,-2.8453,-2.8527,-2.8537,-2.8586,-2.8681,-2.8721,-2.8753,-2.8829,-2.8834,-2.8846,-2.8874,-2.8916,-2.8924,-2.8931,-2.8956,-2.8965,-2.8853,-2.8853,-2.8853,0,-2.8142,-2.8227,-2.8257,-2.8316,-2.8352,-2.8367,-2.8426,-2.8463,-2.8537,-2.8562,-2.8551,-2.8671,-2.871,-2.8796,-2.8815,-2.8841,-2.8857,-2.8838,-2.892,-2.8928,-2.8934,-2.8959,-2.8969,-2.8854,-2.8854,-2.8854,-2.8854,0,-2.8241,-2.8299,-2.8339,-2.8411,-2.8452,-2.851,-2.8549,-2.8587,-2.8601,-2.863,-2.8704,-2.8752,-2.8815,-2.8838,-2.8852,-2.8926,-2.8919,-2.8914,-2.8894,-2.8944,-2.8968,-2.8978,-2.8855,-2.8855,-2.8855,-2.8854,0,0,-2.8299,-2.8388,-2.8402,-2.8434,-2.8502,-2.8547,-2.8607,-2.867,-2.8701,-2.8753,-2.8802,-2.8883,-2.8879,-2.8916,-2.8935,-2.8972,-2.9028,-2.8963,-2.8965,-2.8972,-2.9111,-2.9113,-2.9123,-2.9032,-2.9034,-2.9036,-2.9106,0,-2.8365,-2.8472,-2.8501,-2.8591,-2.8645,-2.8661,-2.8713,-2.876,-2.8789,-2.8838,-2.8871,-2.8927,-2.8919,-2.8941,-2.8979,-2.9013,-2.9056,-2.9009,-2.9077,-2.9079,-2.9061,-2.9136,-2.9138,-2.9202,-2.9116,-2.9118,-2.9119,0,-2.8457,-2.851,-2.8605,-2.8666,-2.869,-2.8736,-2.8796,-2.8844,-2.8897,-2.8916,-2.8958,-2.8973,-2.9035,-2.9014,-2.9099,-2.9066,-2.9096,-2.9117,-2.9121,-2.9126,-2.91,-2.9142,-2.9223,-2.9232,-2.9134,-2.9133,-2.9132,0,-2.8487,-2.8584,-2.8653,-2.8681,-2.8754,-2.8786,-2.8818,-2.8869,-2.8906,-2.8958,-2.8982,-2.9041,-2.9073,-2.9118,-2.9149,-2.9131,-2.9231,-2.9212,-2.9247,-2.9246,-2.9265,-2.9263,-2.935,-2.9288,-2.9288,-2.9288,-2.9288,0,-2.8557,-2.8615,-2.8668,-2.871,-2.8775,-2.8808,-2.8871,-2.8903,-2.895,-2.8998,-2.9016,-2.9061,-2.91,-2.9151,-2.9175,-2.9241,-2.9256,-2.9272,-2.9277,-2.9269,-2.9267,-2.9287,-2.9283,-2.929,-2.929,-2.9289,-2.9289,0,-2.8602,-2.864,-2.8716,-2.878,-2.8797,-2.8842,-2.8896,-2.8937,-2.8968,-2.9029,-2.9045,-2.9093,-2.9153,-2.9189,-2.9265,-2.9282,-2.9354,-2.9359,-2.9336,-2.9338,-2.937,-2.9365,-2.9471,-2.9486,-2.9416,-2.9417,-2.9417,0,-2.8643,-2.8687,-2.8756,-2.879,-2.8822,-2.8877,-2.8914,-2.8949,-2.8987,-2.9052,-2.9085,-2.9147,-2.9198,-2.9293,-2.9334,-2.9392,-2.9397,-2.943,-2.9405,-2.9395,-2.9395,-2.9391,-2.9395,-2.9433,-2.9434,-2.9434,-2.9435,0,-2.8711,-2.8728,-2.8781,-2.8841,-2.8885,-2.8934,-2.8983,-2.901,-2.9053,-2.9094,-2.9156,-2.9196,-2.9274,-2.9334,-2.9396,-2.9428,-2.9438,-2.9443,-2.9453,-2.9444,-2.9428,-2.9435,-2.9345,-2.9439,-2.9439,-2.9438,-2.9438,-2.9438,-2.8753,-2.8793,-2.8848,-2.8907,-2.8947,-2.8993,-2.9035,-2.9071,-2.9124,-2.919,-2.9208,-2.9272,-2.9325,-2.9409,-2.9443,-2.9494,-2.9488,-2.9504,-2.9508,-2.9511,-2.9511,-2.9422,-2.9505,-2.9505,-2.9505,-2.9505,-2.9505,0,-2.8821,-2.8857,-2.8911,-2.8979,-2.9025,-2.9032,-2.9087,-2.9124,-2.9181,-2.923,-2.928,-2.9351,-2.941,-2.9456,-2.9517,-2.9548,-2.9554,-2.9563,-2.9559,-2.9567,-2.9513,-2.9497,-2.9557,-2.9557,-2.9557,-2.9557,-2.9557,-2.9557,-2.8861,-2.8929,-2.8953,-2.9041,-2.9077,-2.9141,-2.9171,-2.9212,-2.9252,-2.933,-2.938,-2.941,-2.9457,-2.9522,-2.9576,-2.9588,-2.9608,-2.9615,-2.9628,-2.9576,-2.957,-2.9565,-2.955,-2.962,-2.962,-2.9677,-2.9678,-2.9678]},{"header":{"parameterUnit":"m.s-1","parameterCategory":1,"la1":30.2991,"la2":30.254,"lo1":-89.0895,"lo2":-89.0444,"dy":0.0017,"dx":0.0017,"nx":28,"ny":28,"refTime":"2024-04-06T09:00:00:Z","depth":0,"parameterNumber":3,"parameterNumberName":"V-component_of_WINDS"},"data":[0,0,0,0,0,0,0,0,0,0,0,0,0,0,0,0,0,0,0,0,0,0,0,0,0,0,0,0,0,0,0,0,0,0,0,0,0,0,0,0,0,0,0,0,0,0,0,0,0,0,0,0,0,0,0,0,0,0,2.9936,2.9936,0,2.9942,2.9942,2.9942,2.9884,2.9883,2.9881,2.9879,2.9884,2.9886,2.9888,0,0,0,0,0,0,0,0,0,0,0,0,0,2.9873,2.9875,2.9936,2.9936,2.9936,2.9942,2.9942,2.9942,2.9884,2.9882,2.9881,2.9879,2.9884,2.9886,2.9888,0,0,0,0,0,0,0,0,0,0,0,0,0,2.9892,2.9875,2.9936,2.9908,2.9906,2.9942,2.9942,2.9942,2.9885,2.9882,2.988,2.9878,2.9883,2.9886,2.9888,2.9951,0,0,2.9896,2.9897,0,0,0,0,0,0,0,0,2.9891,2.9895,2.9912,2.991,2.9908,2.991,2.9922,2.9945,2.9885,2.9893,2.9879,2.9877,2.9895,2.9896,2.9903,2.9952,2.9952,2.9896,2.9897,2.9898,2.9899,0,0,0,0,0,0,0,2.989,2.9894,2.9939,2.9913,2.991,2.9895,2.9895,2.9926,2.9907,2.9892,2.9888,2.9889,2.9893,2.99,2.9902,2.9952,2.9896,2.9898,2.9899,2.99,3.0052,3.0055,0,0,0,0,0,0,2.9893,2.9893,2.9938,2.9939,2.9893,2.9898,2.9898,2.9912,2.9907,2.9904,2.9891,2.9887,2.9897,2.9899,2.9902,2.9975,2.9898,2.9901,2.9902,3.005,3.0053,3.0055,0,0,0,0,0,0,2.9892,2.9897,2.9938,2.9915,2.9919,2.9902,2.9917,2.9913,2.992,2.9906,2.9902,2.9902,2.9896,2.9899,2.9939,2.9974,2.9902,2.9904,3.0047,3.0051,3.0054,3.0121,0,0,0,0,0,0,2.989,2.9897,2.9921,2.9916,2.9921,2.9976,2.992,2.9915,2.9925,2.9918,2.9916,2.9913,2.9894,2.9936,2.9942,2.9976,2.9906,3.0043,3.0048,3.0053,3.0116,3.0127,3.0137,0,0,0,0,0,2.9888,2.994,2.9923,2.9929,2.995,2.9978,2.998,2.9958,2.9928,2.9951,2.9943,2.9913,2.997,2.9941,2.9947,2.9982,3.0041,3.0047,3.0053,3.0111,3.0125,3.0136,0,0,0,0,0,0,2.9949,2.9939,2.992,2.9971,2.9976,2.9968,2.9997,2.9973,2.9986,2.998,2.9951,2.9951,2.9996,2.9994,2.9961,3.0043,3.0,3.0007,3.0043,3.0055,3.0066,3.0064,2.9908,0,0,0,0,0,2.9969,2.9993,2.9982,3.0029,3.0032,3.0015,3.0026,3.0008,3.0012,3.0013,3.0007,3.0011,3.003,3.0043,3.0059,3.0116,3.0114,3.0143,3.0154,3.0162,3.0168,3.0197,3.021,3.0074,3.0074,3.0074,0,0,3.001,3.0007,3.0023,3.0041,3.0043,3.0067,3.0017,3.0045,3.0062,3.0017,3.0055,3.0051,3.0054,3.0102,3.0123,3.0102,3.0206,3.017,3.0177,3.0178,3.0204,3.0217,3.0228,3.0078,3.0078,3.0077,0,0,3.0096,3.0097,3.0135,3.0138,3.0141,3.0129,3.0139,3.0134,3.013,3.0167,3.0134,3.0155,3.0188,3.0191,3.0197,3.0285,3.0257,3.0291,3.0344,3.0373,3.0383,3.0392,3.0422,3.0434,3.0298,3.0298,3.0298,0,3.0146,3.0182,3.0158,3.0188,3.0197,3.0158,3.0196,3.02,3.0208,3.0215,3.019,3.0231,3.023,3.0278,3.03,3.0307,3.0316,3.029,3.0384,3.0393,3.0401,3.0429,3.0441,3.0302,3.0301,3.0301,3.0301,0,3.0242,3.0268,3.0298,3.0308,3.032,3.0354,3.0335,3.035,3.0332,3.0323,3.0361,3.0359,3.0374,3.0385,3.0367,3.043,3.0416,3.0389,3.0344,3.0418,3.0444,3.0455,3.0307,3.0306,3.0305,3.0304,0,0,3.0366,3.0362,3.0373,3.0377,3.0377,3.0396,3.0429,3.0444,3.0457,3.0465,3.049,3.052,3.0494,3.0501,3.0483,3.0508,3.0577,3.0477,3.0477,3.0494,3.0645,3.0664,3.0677,3.0559,3.0561,3.0563,3.0644,0,3.0448,3.0504,3.0483,3.054,3.0562,3.0526,3.0554,3.0558,3.055,3.0568,3.0559,3.058,3.0545,3.0549,3.0572,3.0563,3.0606,3.0558,3.0582,3.0583,3.058,3.0691,3.0712,3.0789,3.0654,3.0656,3.0657,0,3.0552,3.0563,3.0622,3.0619,3.0627,3.0653,3.0665,3.0683,3.0686,3.0678,3.0687,3.0664,3.0695,3.0653,3.0695,3.0662,3.0671,3.0668,3.0671,3.0671,3.0623,3.0693,3.0813,3.0824,3.0673,3.0672,3.0671,0,3.0634,3.0665,3.0703,3.0708,3.0705,3.0724,3.0723,3.0724,3.0734,3.0745,3.0751,3.0765,3.0773,3.0784,3.0766,3.0737,3.081,3.0766,3.0804,3.0804,3.0819,3.0818,3.0941,3.0828,3.0828,3.0828,3.0828,0,3.0727,3.0764,3.074,3.0764,3.0804,3.0781,3.0821,3.0817,3.0818,3.0839,3.081,3.0831,3.0806,3.0824,3.081,3.0846,3.0851,3.0845,3.084,3.0846,3.0847,3.085,3.0844,3.0831,3.083,3.083,3.0829,0,3.0825,3.0811,3.085,3.0845,3.0844,3.0874,3.0869,3.089,3.0881,3.0909,3.0914,3.0899,3.0919,3.0903,3.0923,3.0913,3.0961,3.0949,3.096,3.0956,3.0993,3.099,3.1121,3.1137,3.1016,3.1017,3.1018,0,3.0885,3.0912,3.091,3.0923,3.0924,3.0945,3.0955,3.0934,3.0946,3.0951,3.0972,3.099,3.1003,3.1037,3.1027,3.1042,3.103,3.1076,3.1032,3.1037,3.1029,3.1027,3.1029,3.1084,3.1085,3.1086,3.1087,0,3.0992,3.0983,3.1,3.1013,3.1027,3.1036,3.1044,3.1056,3.1034,3.1049,3.1069,3.1079,3.11,3.1117,3.1129,3.1128,3.1104,3.1101,3.111,3.1116,3.112,3.1117,3.0982,3.1098,3.1097,3.1096,3.1095,3.1095,3.1071,3.1094,3.1095,3.1114,3.1118,3.1125,3.1145,3.1138,3.1155,3.117,3.1156,3.1181,3.1183,3.1196,3.1199,3.1217,3.1198,3.1212,3.1215,3.1218,3.1223,3.1119,3.1219,3.1219,3.1219,3.1218,3.1218,0,3.1175,3.1175,3.1192,3.1204,3.1218,3.1195,3.1202,3.1216,3.1238,3.1242,3.1256,3.1279,3.1296,3.1289,3.1304,3.132,3.1309,3.1324,3.1322,3.1322,3.124,3.1229,3.1333,3.1333,3.1333,3.1333,3.1333,3.1333,3.1231,3.1267,3.1259,3.1297,3.1296,3.1319,3.1325,3.1332,3.1335,3.1363,3.1377,3.1372,3.1371,3.1386,3.1401,3.1398,3.1404,3.1423,3.1416,3.1339,3.1328,3.1317,3.1307,3.1425,3.1425,3.1497,3.1498,3.1498]}]]